This demonstration page uses our WeatherBlox Daily Observations layout. Learn more.

Left ArrowRight Arrow

36.19886, -115.1175

Hourly Observations for August 10, 2015

Temp ( °F °C ) Dew Point ( °F °C ) Humidity (%) Winds ( mph kmh ) Pressure ( in mb ) Visibility ( mi km ) Precip ( " mm )
12:53 am 00:53 Clear 87 30.6 41 5 20 20 Calm 29.84 1011 10 16 0.00 0.00
1:53 am 01:53 Clear 83 28.3 42 5.6 24 24 NNW 3 6 29.84 1011 10 16 0.00 0.00
2:53 am 02:53 Clear 83 28.3 43 6.1 24 24 WNW 3 6 29.84 1011 10 16 0.00 0.00
3:53 am 03:53 Clear 80 26.7 43 6.1 27 27 Calm 29.85 1011 10 16 0.00 0.00
4:53 am 04:53 Clear 80 26.7 45 7.2 29 29 WNW 6 9 29.85 1011 10 16 0.00 0.00
5:53 am 05:53 Clear 79 26.1 44 6.7 29 29 Calm 29.87 1011 10 16 0.00 0.00
6:53 am 06:53 Sunny 79 26.1 47 8.3 32 32 NNW 3 6 29.89 1012 10 16 0.00 0.00
7:53 am 07:53 Sunny 85 29.4 47 8.3 27 27 Calm 29.91 1013 10 16 0.00 0.00
8:53 am 08:53 Sunny 88 31.1 46 7.8 23 23 Calm 29.91 1013 10 16 0.00 0.00
9:53 am 09:53 Sunny 91 32.8 46 7.8 21 21 SE 8 13 29.90 1013 10 16 0.00 0.00
10:53 am 10:53 Sunny 95 35 46 7.8 19 19 SSE 9 15 29.89 1012 10 16 0.00 0.00
11:53 am 11:53 Sunny 97 36.1 46 7.8 17 17 ESE 13 20 29.88 1012 10 16 0.00 0.00
12:53 pm 12:53 Sunny 100 37.8 45 7.2 15 15 SE 18 30 29.84 1011 10 16 0.00 0.00
1:53 pm 13:53 Sunny 100 37.8 42 5.6 14 14 ESE 13 20 29.82 1010 10 16 0.00 0.00
2:53 pm 14:53 Sunny 102 38.9 40 4.4 12 12 S 10 17 29.79 1009 10 16 0.00 0.00
3:53 pm 15:53 Sunny 103 39.4 40 4.4 11 11 S 14 22 29.76 1008 10 16 0.00 0.00
4:01 pm 16:01 Sunny 103 39.4 41 5 12 12 S 20 31 29.56 1001 10 16 0.00 0.00
4:53 pm 16:53 Sunny 102 38.9 38 3.3 11 11 S 10 17 29.75 1008 10 16 0.00 0.00
5:53 pm 17:53 Sunny 102 38.9 38 3.3 11 11 S 13 20 29.74 1007 10 16 0.00 0.00
6:53 pm 18:53 Sunny 100 37.8 37 2.8 11 11 S 13 20 29.73 1007 10 16 0.00 0.00
7:53 pm 19:53 Clear 98 36.7 37 2.8 12 12 S 9 15 29.74 1007 10 16 0.00 0.00
8:53 pm 20:53 Clear 96 35.6 38 3.3 13 13 S 10 17 29.76 1008 10 16 0.00 0.00
9:53 pm 21:53 Clear 95 35 37 2.8 13 13 SW 8 13 29.78 1009 10 16 0.00 0.00
10:53 pm 22:53 Clear 93 33.9 37 2.8 14 14 S 8 13 29.79 1009 10 16 0.00 0.00
11:53 pm 23:53 Clear 92 33.3 37 2.8 14 14 SSW 8 13 29.80 1009 10 16 0.00 0.00

Powered by AerisWeather